| time (UTC) | temp F | wind direction | speed MPH | gust MPH | rain 1hr in | rain 24hr in | rain mn in | humidity % | barometer mb |
| 20260502203012 | 75 | 261 | 6.0 | 9.0 | 0.00 | 0.00 | 0.00 | 99 | 1026.5 |
| 20260502202508 | 75 | 301 | 3.0 | 7.0 | 0.00 | 0.00 | 0.00 | 99 | 1026.7 |
| 20260502202007 | 74 | 285 | 5.0 | 8.0 | 0.00 | 0.00 | 0.00 | 99 | 1026.7 |
| 20260502201502 | 74 | 340 | 1.0 | 7.0 | 0.00 | 0.00 | 0.00 | 99 | 1026.6 |
| 20260502200959 | 75 | 300 | 2.0 | 3.0 | 0.00 | 0.00 | 0.00 | 99 | 1026.7 |
| 20260502200455 | 75 | 79 | 2.0 | 8.0 | 0.00 | 0.00 | 0.00 | 99 | 1026.8 |
| 20260502195953 | 75 | 150 | 2.0 | 3.0 | 0.00 | 0.00 | 0.00 | 99 | 1027.1 |
| 20260502195450 | 74 | 293 | 2.0 | 5.0 | 0.00 | 0.00 | 0.00 | 99 | 1027.0 |
| 20260502194946 | 74 | 290 | 4.0 | 7.0 | 0.00 | 0.00 | 0.00 | 99 | 1027.3 |
| 20260502194443 | 74 | 56 | 4.0 | 7.0 | 0.00 | 0.00 | 0.00 | 99 | 1026.9 |
| 20260502193939 | 74 | 0 | 1.0 | 12.0 | 0.00 | 0.00 | 0.00 | 99 | 1027.2 |
| 20260502193437 | 74 | 259 | 5.0 | 6.0 | 0.00 | 0.00 | 0.00 | 99 | 1027.2 |
| 20260502192932 | 75 | 255 | 3.0 | 5.0 | 0.00 | 0.00 | 0.00 | 99 | 1027.2 |
| 20260502192429 | 73 | 120 | 0.0 | 6.0 | 0.00 | 0.00 | 0.00 | 99 | 1027.4 |
| 20260502191926 | 74 | 0 | 0.0 | 7.0 | 0.00 | 0.00 | 0.00 | 99 | 1027.4 |
| 20260502191424 | 74 | 319 | 5.0 | 7.0 | 0.00 | 0.00 | 0.00 | 99 | 1027.5 |
| 20260502190921 | 74 | 313 | 7.0 | 7.0 | 0.00 | 0.00 | 0.00 | 99 | 1027.5 |
| 20260502190418 | 74 | 98 | 1.0 | 4.0 | 0.00 | 0.00 | 0.00 | 99 | 1027.7 |
| 20260502185914 | 73 | 69 | 1.0 | 4.0 | 0.00 | 0.00 | 0.00 | 99 | 1027.5 |
| 20260502185409 | 73 | 292 | 5.0 | 5.0 | 0.00 | 0.00 | 0.00 | 99 | 1027.7 |
| 20260502184907 | 73 | 270 | 3.0 | 7.0 | 0.00 | 0.00 | 0.00 | 99 | 1027.8 |
| 20260502184402 | 73 | 35 | 3.0 | 6.0 | 0.00 | 0.00 | 0.00 | 99 | 1028.0 |
| 20260502183859 | 73 | 0 | 5.0 | 6.0 | 0.00 | 0.00 | 0.00 | 99 | 1027.7 |
| 20260502183355 | 73 | 26 | 8.0 | 8.0 | 0.00 | 0.00 | 0.00 | 99 | 1027.9 |
| 20260502182851 | 72 | 349 | 2.0 | 7.0 | 0.00 | 0.00 | 0.00 | 99 | 1027.8 |
| 20260502182347 | 74 | 337 | 5.0 | 10.0 | 0.00 | 0.00 | 0.00 | 99 | 1028.2 |
| 20260502181843 | 72 | 6 | 4.0 | 6.0 | 0.00 | 0.00 | 0.00 | 99 | 1028.2 |
| 20260502181342 | 72 | 226 | 4.0 | 7.0 | 0.00 | 0.00 | 0.00 | 99 | 1028.1 |
| 20260502180839 | 72 | 353 | 2.0 | 6.0 | 0.00 | 0.00 | 0.00 | 99 | 1028.2 |
| 20260502180336 | 71 | 259 | 4.0 | 5.0 | 0.00 | 0.00 | 0.00 | 99 | 1028.2 |
| 20260502170255 | 70 | 140 | 2.0 | 5.0 | 0.00 | 0.00 | 0.00 | 99 | 1028.9 |
| 20260502164243 | 71 | 95 | 0.0 | 4.0 | 0.00 | 0.00 | 0.00 | 99 | 1028.9 |
| 20260502163738 | 71 | 86 | 3.0 | 4.0 | 0.00 | 0.00 | 0.00 | 99 | 1029.0 |
| 20260502163235 | 70 | 356 | 2.0 | 4.0 | 0.00 | 0.00 | 0.00 | 99 | 1028.9 |
| 20260502162732 | 71 | 96 | 2.0 | 2.0 | 0.00 | 0.00 | 0.00 | 99 | 1029.1 |
| 20260502162229 | 69 | 55 | 2.0 | 4.0 | 0.00 | 0.00 | 0.00 | 99 | 1028.8 |
| 20260502161726 | 69 | 266 | 5.0 | 6.0 | 0.00 | 0.00 | 0.00 | 99 | 1029.0 |
| 20260502161222 | 69 | 289 | 1.0 | 4.0 | 0.00 | 0.00 | 0.00 | 99 | 1029.0 |
| 20260502160721 | 68 | 39 | 5.0 | 5.0 | 0.00 | 0.00 | 0.00 | 99 | 1029.0 |
| 20260502160219 | 69 | 30 | 7.0 | 7.0 | 0.00 | 0.00 | 0.00 | 99 | 1029.0 |
| 20260502152143 | 67 | 60 | 1.0 | 6.0 | 0.00 | 0.00 | 0.00 | 99 | 1028.8 |
| 20260502151641 | 68 | 83 | 1.0 | 3.0 | 0.00 | 0.00 | 0.00 | 99 | 1028.8 |
| 20260502151137 | 68 | 90 | 0.0 | 2.0 | 0.00 | 0.00 | 0.00 | 99 | 1028.6 |
| 20260502150635 | 65 | 305 | 2.0 | 4.0 | 0.00 | 0.00 | 0.00 | 99 | 1028.5 |
| 20260502150131 | 65 | 65 | 2.0 | 6.0 | 0.00 | 0.00 | 0.00 | 99 | 1028.5 |
| 20260502130520 | 55 | 18 | 0.0 | 2.0 | 0.00 | 0.00 | 0.00 | 99 | 1027.8 |
| 20260502123503 | 52 | 334 | 0.0 | 0.0 | 0.00 | 0.00 | 0.00 | 99 | 1027.3 |
| 20260502122959 | 51 | 334 | 0.0 | 0.0 | 0.00 | 0.00 | 0.00 | 99 | 1027.2 |
| 20260502122455 | 51 | 331 | 2.0 | 2.0 | 0.00 | 0.00 | 0.00 | 99 | 1027.0 |
| 20260502121954 | 50 | 337 | 0.0 | 1.0 | 0.00 | 0.00 | 0.00 | 99 | 1027.0 |
| 20260502121451 | 50 | 0 | 0.0 | 1.0 | 0.00 | 0.00 | 0.00 | 99 | 1027.0 |
| 20260502120948 | 50 | 20 | 0.0 | 1.0 | 0.00 | 0.00 | 0.00 | 99 | 1026.9 |
| 20260502120444 | 49 | 35 | 1.0 | 2.0 | 0.00 | 0.00 | 0.00 | 99 | 1026.8 |
| 20260502115439 | 49 | 74 | 0.0 | 0.0 | 0.00 | 0.00 | 0.00 | 99 | 1026.5 |
| 20260502114935 | 50 | 74 | 0.0 | 0.0 | 0.00 | 0.00 | 0.00 | 99 | 1026.4 |
| 20260502114432 | 50 | 74 | 0.0 | 0.0 | 0.00 | 0.00 | 0.00 | 99 | 1026.3 |
| 20260502113929 | 50 | 74 | 0.0 | 0.0 | 0.00 | 0.00 | 0.00 | 99 | 1026.1 |
| 20260502113426 | 50 | 74 | 0.0 | 0.0 | 0.00 | 0.00 | 0.00 | 99 | 1026.1 |
| 20260502112925 | 51 | 74 | 0.0 | 0.0 | 0.00 | 0.00 | 0.00 | 99 | 1026.0 |
| 20260502112422 | 51 | 74 | 0.0 | 0.0 | 0.00 | 0.00 | 0.00 | 99 | 1026.1 |
| 20260502111920 | 52 | 0 | 0.0 | 1.0 | 0.00 | 0.00 | 0.00 | 99 | 1026.0 |
| 20260502111416 | 52 | 26 | 0.0 | 2.0 | 0.00 | 0.00 | 0.00 | 99 | 1026.2 |
| 20260502110914 | 52 | 12 | 1.0 | 2.0 | 0.00 | 0.00 | 0.00 | 99 | 1026.2 |
| 20260502110412 | 52 | 300 | 0.0 | 2.0 | 0.00 | 0.00 | 0.00 | 99 | 1026.1 |
| 20260502105909 | 53 | 325 | 1.0 | 3.0 | 0.00 | 0.00 | 0.00 | 99 | 1025.9 |
| 20260502105406 | 53 | 330 | 0.0 | 3.0 | 0.00 | 0.00 | 0.00 | 99 | 1025.9 |
| 20260502104904 | 52 | 330 | 2.0 | 4.0 | 0.00 | 0.00 | 0.00 | 99 | 1026.0 |
| 20260502104401 | 52 | 250 | 2.0 | 3.0 | 0.00 | 0.00 | 0.00 | 99 | 1025.9 |
| 20260502103858 | 51 | 311 | 0.0 | 2.0 | 0.00 | 0.00 | 0.00 | 99 | 1025.7 |
| 20260502103355 | 51 | 8 | 0.0 | 0.0 | 0.00 | 0.00 | 0.00 | 99 | 1025.4 |
| 20260502102852 | 51 | 337 | 0.0 | 0.0 | 0.00 | 0.00 | 0.00 | 99 | 1025.5 |
| 20260502102349 | 51 | 337 | 0.0 | 0.0 | 0.00 | 0.00 | 0.00 | 99 | 1025.4 |
| 20260502101846 | 52 | 337 | 0.0 | 0.0 | 0.00 | 0.00 | 0.00 | 99 | 1025.6 |
| 20260502101345 | 53 | 0 | 0.0 | 1.0 | 0.00 | 0.00 | 0.00 | 99 | 1025.0 |
| 20260502100843 | 53 | 0 | 0.0 | 1.0 | 0.00 | 0.00 | 0.00 | 99 | 1025.5 |
| 20260502100342 | 53 | 0 | 0.0 | 2.0 | 0.00 | 0.00 | 0.00 | 99 | 1025.6 |
| 20260502091315 | 54 | 340 | 0.0 | 3.0 | 0.00 | 0.00 | 0.00 | 99 | 1025.7 |
| 20260502090813 | 54 | 292 | 2.0 | 3.0 | 0.00 | 0.00 | 0.00 | 99 | 1025.4 |
| 20260502090309 | 54 | 331 | 0.0 | 3.0 | 0.00 | 0.00 | 0.00 | 99 | 1025.5 |
| 20260502071204 | 55 | 28 | 0.0 | 2.0 | 0.00 | 0.00 | 0.00 | 99 | 1025.4 |
| 20260502070703 | 55 | 0 | 0.0 | 0.0 | 0.00 | 0.00 | 0.00 | 99 | 1025.5 |
| 20260502070200 | 55 | 279 | 0.0 | 0.0 | 0.00 | 0.00 | 0.00 | 99 | 1025.4 |
| 20260502065659 | 56 | 345 | 0.0 | 3.0 | 0.00 | 0.00 | 0.00 | 99 | 1025.5 |
| 20260502065155 | 56 | 294 | 1.0 | 4.0 | 0.00 | 0.00 | 0.00 | 99 | 1025.6 |
| 20260502064654 | 56 | 275 | 2.0 | 4.0 | 0.00 | 0.00 | 0.00 | 99 | 1025.7 |
| 20260502064151 | 56 | 282 | 0.0 | 3.0 | 0.00 | 0.00 | 0.00 | 99 | 1025.6 |
| 20260502063649 | 56 | 315 | 2.0 | 3.0 | 0.00 | 0.00 | 0.00 | 99 | 1025.7 |
| 20260502063147 | 55 | 270 | 0.0 | 3.0 | 0.00 | 0.00 | 0.00 | 99 | 1025.6 |
| 20260502062643 | 55 | 291 | 1.0 | 2.0 | 0.00 | 0.00 | 0.00 | 99 | 1025.5 |
| 20260502062141 | 54 | 289 | 0.0 | 2.0 | 0.00 | 0.00 | 0.00 | 99 | 1025.4 |
| 20260502061639 | 54 | 270 | 0.0 | 1.0 | 0.00 | 0.00 | 0.00 | 99 | 1025.6 |
| 20260502061137 | 54 | 340 | 0.0 | 0.0 | 0.00 | 0.00 | 0.00 | 99 | 1025.7 |
| 20260502060636 | 54 | 352 | 0.0 | 0.0 | 0.00 | 0.00 | 0.00 | 99 | 1025.4 |
| 20260502060133 | 54 | 0 | 0.0 | 0.0 | 0.00 | 0.00 | 0.00 | 99 | 1025.4 |
| 20260502055631 | 54 | 0 | 0.0 | 0.0 | 0.00 | 0.00 | 0.00 | 99 | 1025.5 |
| 20260502055129 | 54 | 352 | 0.0 | 0.0 | 0.00 | 0.00 | 0.00 | 99 | 1025.7 |
| 20260502054628 | 53 | 303 | 0.0 | 0.0 | 0.00 | 0.00 | 0.00 | 99 | 1025.8 |
| 20260502054125 | 53 | 303 | 0.0 | 0.0 | 0.00 | 0.00 | 0.00 | 99 | 1025.7 |
| 20260502053622 | 53 | 352 | 0.0 | 1.0 | 0.00 | 0.00 | 0.00 | 99 | 1025.6 |
| 20260502053119 | 54 | 186 | 0.0 | 0.0 | 0.00 | 0.00 | 0.00 | 99 | 1025.6 |
| 20260502052617 | 54 | 186 | 0.0 | 0.0 | 0.00 | 0.00 | 0.00 | 99 | 1025.6 |
| 20260502052115 | 55 | 186 | 0.0 | 0.0 | 0.00 | 0.00 | 0.00 | 99 | 1025.4 |
| 20260502051613 | 55 | 186 | 0.0 | 0.0 | 0.00 | 0.00 | 0.00 | 99 | 1025.8 |
| 20260502051111 | 55 | 186 | 0.0 | 1.0 | 0.00 | 0.00 | 0.00 | 99 | 1025.6 |
| 20260502050607 | 55 | 286 | 0.0 | 1.0 | 0.00 | 0.00 | 0.00 | 99 | 1025.7 |
| 20260502050104 | 55 | 303 | 0.0 | 2.0 | 0.00 | 0.00 | 0.00 | 99 | 1025.6 |
| 20260502045600 | 55 | 106 | 0.0 | 0.0 | 0.00 | 0.00 | 0.00 | 99 | 1025.6 |
| 20260502045057 | 56 | 261 | 0.0 | 0.0 | 0.00 | 0.00 | 0.00 | 99 | 1025.6 |
| 20260502044554 | 55 | 261 | 0.0 | 0.0 | 0.00 | 0.00 | 0.00 | 99 | 1025.7 |
| 20260502044051 | 55 | 261 | 0.0 | 0.0 | 0.00 | 0.00 | 0.00 | 99 | 1025.6 |
| 20260502043548 | 56 | 261 | 0.0 | 0.0 | 0.00 | 0.00 | 0.00 | 99 | 1025.4 |
| 20260502043044 | 56 | 261 | 0.0 | 0.0 | 0.00 | 0.00 | 0.00 | 99 | 1025.5 |
| 20260502042539 | 56 | 90 | 0.0 | 0.0 | 0.00 | 0.00 | 0.00 | 99 | 1025.4 |
| 20260502042037 | 56 | 90 | 0.0 | 0.0 | 0.00 | 0.00 | 0.00 | 99 | 1025.5 |
| 20260502041535 | 55 | 90 | 0.0 | 0.0 | 0.00 | 0.00 | 0.00 | 99 | 1025.5 |
| 20260502041032 | 56 | 90 | 0.0 | 0.0 | 0.00 | 0.00 | 0.00 | 99 | 1025.4 |
| 20260502040528 | 56 | 90 | 0.0 | 0.0 | 0.00 | 0.00 | 0.00 | 99 | 1025.2 |
| 20260502040025 | 57 | 90 | 0.0 | 0.0 | 0.00 | 0.00 | 0.00 | 99 | 1025.1 |
| 20260502035521 | 57 | 82 | 0.0 | 0.0 | 0.00 | 0.00 | 0.00 | 99 | 1025.7 |
| 20260502035019 | 57 | 82 | 0.0 | 0.0 | 0.00 | 0.00 | 0.00 | 99 | 1025.5 |
| 20260502034516 | 57 | 270 | 0.0 | 0.0 | 0.00 | 0.00 | 0.00 | 99 | 1025.4 |
| 20260502034015 | 57 | 270 | 0.0 | 0.0 | 0.00 | 0.00 | 0.00 | 99 | 1025.6 |
| 20260502033513 | 57 | 270 | 0.0 | 0.0 | 0.00 | 0.00 | 0.00 | 99 | 1025.5 |
| 20260502033010 | 58 | 270 | 0.0 | 0.0 | 0.00 | 0.00 | 0.00 | 99 | 1025.5 |
| 20260502032505 | 58 | 270 | 0.0 | 0.0 | 0.00 | 0.00 | 0.00 | 99 | 1025.6 |
| 20260502032003 | 58 | 270 | 0.0 | 0.0 | 0.00 | 0.00 | 0.00 | 99 | 1025.4 |
| 20260502031500 | 58 | 270 | 0.0 | 0.0 | 0.00 | 0.00 | 0.00 | 99 | 1025.5 |
| 20260502030958 | 59 | 270 | 0.0 | 0.0 | 0.00 | 0.00 | 0.00 | 99 | 1025.2 |
| 20260502030456 | 58 | 286 | 1.0 | 1.0 | 0.00 | 0.00 | 0.00 | 99 | 1025.1 |
| 20260502025954 | 59 | 90 | 0.0 | 0.0 | 0.00 | 0.00 | 0.00 | 99 | 1024.9 |
| 20260502025451 | 59 | 90 | 0.0 | 0.0 | 0.00 | 0.00 | 0.00 | 99 | 1024.9 |
| 20260502024949 | 59 | 90 | 0.0 | 0.0 | 0.00 | 0.00 | 0.00 | 99 | 1025.1 |
| 20260502024447 | 59 | 195 | 0.0 | 1.0 | 0.00 | 0.00 | 0.00 | 99 | 1025.2 |
| 20260502023945 | 59 | 99 | 0.0 | 0.0 | 0.00 | 0.00 | 0.00 | 99 | 1025.0 |
| 20260502023442 | 60 | 99 | 0.0 | 0.0 | 0.00 | 0.00 | 0.00 | 99 | 1025.1 |
| 20260502022939 | 60 | 99 | 0.0 | 0.0 | 0.00 | 0.00 | 0.00 | 99 | 1024.9 |
| 20260502022435 | 60 | 99 | 0.0 | 0.0 | 0.00 | 0.00 | 0.00 | 99 | 1024.9 |
| 20260502021932 | 60 | 99 | 0.0 | 0.0 | 0.00 | 0.00 | 0.00 | 99 | 1024.8 |
| 20260502021430 | 60 | 99 | 0.0 | 0.0 | 0.00 | 0.00 | 0.00 | 99 | 1024.7 |
| 20260502020927 | 60 | 99 | 0.0 | 0.0 | 0.00 | 0.00 | 0.00 | 99 | 1024.6 |
| 20260502020425 | 60 | 99 | 0.0 | 0.0 | 0.00 | 0.00 | 0.00 | 99 | 1024.4 |
| 20260502015921 | 60 | 99 | 0.0 | 0.0 | 0.00 | 0.00 | 0.00 | 99 | 1024.2 |
| 20260502015419 | 60 | 99 | 0.0 | 0.0 | 0.00 | 0.00 | 0.00 | 99 | 1024.2 |
| 20260502014915 | 60 | 99 | 0.0 | 0.0 | 0.00 | 0.00 | 0.00 | 99 | 1024.2 |
| 20260502014413 | 60 | 99 | 0.0 | 0.0 | 0.00 | 0.00 | 0.00 | 99 | 1024.2 |
| 20260502013909 | 60 | 99 | 0.0 | 0.0 | 0.00 | 0.00 | 0.00 | 99 | 1023.9 |
| 20260502013404 | 60 | 99 | 0.0 | 0.0 | 0.00 | 0.00 | 0.00 | 99 | 1023.9 |
| 20260502012901 | 60 | 99 | 0.0 | 0.0 | 0.00 | 0.00 | 0.00 | 99 | 1023.6 |
| 20260502012359 | 60 | 99 | 0.0 | 0.0 | 0.00 | 0.00 | 0.00 | 99 | 1023.6 |
| 20260502011856 | 61 | 99 | 0.0 | 0.0 | 0.00 | 0.00 | 0.00 | 99 | 1023.5 |
| 20260502011352 | 61 | 99 | 0.0 | 0.0 | 0.00 | 0.00 | 0.00 | 99 | 1023.4 |
| 20260502010849 | 61 | 99 | 0.0 | 0.0 | 0.00 | 0.00 | 0.00 | 99 | 1023.4 |
| 20260502010346 | 61 | 90 | 0.0 | 0.0 | 0.00 | 0.00 | 0.00 | 99 | 1023.2 |
| 20260502005843 | 61 | 90 | 0.0 | 0.0 | 0.00 | 0.00 | 0.00 | 99 | 1023.3 |
| 20260502005341 | 61 | 90 | 0.0 | 0.0 | 0.00 | 0.00 | 0.00 | 99 | 1023.2 |
| 20260502004838 | 61 | 90 | 0.0 | 0.0 | 0.00 | 0.00 | 0.00 | 99 | 1023.1 |
| 20260502004333 | 62 | 90 | 0.0 | 0.0 | 0.00 | 0.00 | 0.00 | 99 | 1023.2 |
| 20260502003832 | 62 | 90 | 0.0 | 0.0 | 0.00 | 0.00 | 0.00 | 99 | 1023.1 |
| 20260502003328 | 62 | 98 | 0.0 | 1.0 | 0.00 | 0.00 | 0.00 | 99 | 1022.9 |
| 20260502002825 | 62 | 90 | 0.0 | 0.0 | 0.00 | 0.00 | 0.00 | 99 | 1023.0 |
| 20260502002322 | 63 | 90 | 0.0 | 1.0 | 0.00 | 0.00 | 0.00 | 99 | 1023.0 |
| 20260502001819 | 63 | 106 | 0.0 | 0.0 | 0.00 | 0.00 | 0.00 | 99 | 1022.9 |
| 20260502001317 | 63 | 81 | 0.0 | 0.0 | 0.00 | 0.00 | 0.00 | 99 | 1022.7 |
| 20260502000814 | 63 | 203 | 0.0 | 0.0 | 0.00 | 0.00 | 0.00 | 99 | 1022.4 |
| 20260502000312 | 63 | 131 | 0.0 | 2.0 | 0.00 | 0.00 | 0.00 | 99 | 1022.7 |
| 20260501235808 | 63 | 81 | 0.0 | 1.0 | 0.00 | 0.00 | 0.00 | 99 | 1022.4 |
| 20260501235305 | 64 | 98 | 0.0 | 1.0 | 0.00 | 0.00 | 0.00 | 99 | 1022.3 |
| 20260501234759 | 64 | 75 | 0.0 | 2.0 | 0.00 | 0.00 | 0.00 | 99 | 1022.3 |
| 20260501234257 | 64 | 99 | 0.0 | 2.0 | 0.00 | 0.00 | 0.00 | 99 | 1022.3 |
| 20260501233755 | 64 | 96 | 0.0 | 1.0 | 0.00 | 0.00 | 0.00 | 99 | 1022.2 |
| 20260501233252 | 64 | 83 | 0.0 | 1.0 | 0.00 | 0.00 | 0.00 | 99 | 1022.2 |
| 20260501232748 | 64 | 99 | 0.0 | 1.0 | 0.00 | 0.00 | 0.00 | 99 | 1022.2 |
| 20260501232245 | 64 | 106 | 0.0 | 2.0 | 0.00 | 0.00 | 0.00 | 99 | 1022.0 |
| 20260501231743 | 64 | 90 | 0.0 | 2.0 | 0.00 | 0.00 | 0.00 | 99 | 1022.0 |
| 20260501231241 | 64 | 99 | 0.0 | 2.0 | 0.00 | 0.00 | 0.00 | 99 | 1022.0 |
| 20260501230739 | 64 | 106 | 0.0 | 3.0 | 0.00 | 0.00 | 0.00 | 99 | 1021.9 |
| 20260501230237 | 64 | 98 | 1.0 | 2.0 | 0.00 | 0.00 | 0.00 | 99 | 1021.8 |
| 20260501225735 | 64 | 96 | 0.0 | 2.0 | 0.00 | 0.00 | 0.00 | 99 | 1021.8 |
| 20260501225232 | 64 | 84 | 2.0 | 2.0 | 0.00 | 0.00 | 0.00 | 99 | 1021.8 |
| 20260501224728 | 64 | 107 | 0.0 | 2.0 | 0.00 | 0.00 | 0.00 | 99 | 1021.7 |
| 20260501224226 | 64 | 114 | 0.0 | 2.0 | 0.00 | 0.00 | 0.00 | 99 | 1021.9 |
| 20260501223721 | 64 | 106 | 0.0 | 2.0 | 0.00 | 0.00 | 0.00 | 99 | 1021.9 |
| 20260501223218 | 65 | 103 | 0.0 | 1.0 | 0.00 | 0.00 | 0.00 | 99 | 1021.8 |
| 20260501222714 | 64 | 105 | 1.0 | 2.0 | 0.00 | 0.00 | 0.00 | 99 | 1021.8 |
| 20260501222211 | 64 | 90 | 0.0 | 2.0 | 0.00 | 0.00 | 0.00 | 99 | 1022.0 |
| 20260501221708 | 64 | 101 | 0.0 | 2.0 | 0.00 | 0.00 | 0.00 | 99 | 1021.8 |
| 20260501221205 | 64 | 105 | 1.0 | 2.0 | 0.00 | 0.00 | 0.00 | 99 | 1021.8 |
| 20260501220703 | 64 | 99 | 0.0 | 2.0 | 0.00 | 0.00 | 0.00 | 99 | 1021.8 |
| 20260501220200 | 64 | 108 | 0.0 | 3.0 | 0.00 | 0.00 | 0.00 | 99 | 1022.1 |
| 20260501215657 | 65 | 90 | 0.0 | 6.0 | 0.00 | 0.00 | 0.00 | 99 | 1022.0 |
| 20260501215152 | 64 | 103 | 0.0 | 5.0 | 0.00 | 0.00 | 0.00 | 99 | 1021.9 |
| 20260501214647 | 65 | 82 | 1.0 | 3.0 | 0.00 | 0.00 | 0.00 | 99 | 1021.9 |
| 20260501214142 | 65 | 68 | 0.0 | 4.0 | 0.00 | 0.00 | 0.00 | 99 | 1021.7 |
| 20260501213640 | 65 | 139 | 2.0 | 5.0 | 0.00 | 0.00 | 0.00 | 99 | 1021.7 |
| 20260501213136 | 65 | 90 | 2.0 | 3.0 | 0.00 | 0.00 | 0.00 | 99 | 1021.8 |
| 20260501212633 | 65 | 121 | 2.0 | 3.0 | 0.00 | 0.00 | 0.00 | 99 | 1021.9 |
| 20260501212129 | 65 | 110 | 2.0 | 5.0 | 0.00 | 0.00 | 0.00 | 99 | 1021.8 |
| 20260501211626 | 65 | 120 | 0.0 | 4.0 | 0.00 | 0.00 | 0.00 | 99 | 1021.8 |
| 20260501211124 | 65 | 98 | 1.0 | 3.0 | 0.00 | 0.00 | 0.00 | 99 | 1022.1 |
| 20260501210620 | 65 | 126 | 3.0 | 5.0 | 0.00 | 0.00 | 0.00 | 99 | 1022.1 |
| 20260501210117 | 66 | 127 | 3.0 | 4.0 | 0.00 | 0.00 | 0.00 | 99 | 1022.2 |
| 20260501205613 | 66 | 90 | 0.0 | 3.0 | 0.00 | 0.00 | 0.00 | 99 | 1022.5 |
| 20260501205111 | 65 | 15 | 4.0 | 5.0 | 0.00 | 0.00 | 0.00 | 99 | 1022.2 |
| 20260501204607 | 65 | 101 | 3.0 | 5.0 | 0.00 | 0.00 | 0.00 | 99 | 1022.3 |
| 20260501204103 | 64 | 128 | 2.0 | 6.0 | 0.00 | 0.00 | 0.00 | 99 | 1022.5 |
| 20260501203600 | 64 | 157 | 3.0 | 3.0 | 0.00 | 0.00 | 0.00 | 99 | 1022.6 |